Find Kosmos-2216

NORAD ID: 22187 Int'l Des: 1992-068 Owner: VKS Country: RU operational
LEOCIRCULARPOLAR

当前视图

正在加载3D地球...

About Kosmos-2216

Kosmos-2216 (NORAD 22187) is a satellite launched Oct 20, 1992 by VKS of RU. It operates in LEO, CIRCULAR, POLAR orbit with a mass of 225.00 kg.

关于 Kosmos-2216

正在加载描述...

即将过境

Passes for default location (London). Set your location on the main map for personalized predictions.

高度历史

Loading altitude history...

两行轨道根数

1 22187U 92068F 26159.78545372 .00000030 00000-0 10941-3 0 9990
2 22187 82.5965 349.1871 0005813 148.4096 211.7345 12.62585416549831
Epoch: Jun 8, 2026 • Age: 8 hours

当前状态

高度 1422.5 km
速度 7.15 km/s
星下点 -14.98°S, 53.85°E
发射日期 Oct 20, 1992
运行时间 33.6 years
类型 other

技术详情

分类 Payload
质量 225.00 kg
干质量 225.00 kg
总质量 225.00 kg
长度 1.60 m
直径 0.80 m
跨度 7.00 m
形状 Cyl + Ant
制造商 NPOPM
平台类型 Strela-3
阶段状态 In Orbit
所有者/国家 VKS/RU

Most Searched